GORIZONT 7 [-]

Last updated on Oct. 26, 2020, 5:52 a.m. UTC

1 14160U 83066A   20299.62959854 -.00000016  00000-0  00000-0 0  9993
2 14160  13.1941 329.1084 0011837 309.8403 226.7927  0.98346574134488
UTC
Height (km)
Latitude
Longitude
Inclination
Orbital Period
UTC large
Height (km)
Speed (km/s)
/
Latitude / Longitude
Inclination (degrees)
Orbital Period (minutes)
Azimuth
Elevation
Range (km)
Doppler Factor
iOS Compass Heading
iOS Angle

Next 30 passes for location: Hong Kong

Rise time Rise Azimuth (degrees) Set time Set Azimuth (degrees) Duration Max altitude (degrees)

No matching passes for this satellites